Simultaneous Nadir Overpasses (SNOs) Predictions

Prediction of SNOs over PacNW region [( 10.00, 139.50) to ( 22.70, 165.60)] between AQUA and NPP Satellites:

Table of predicted SNOs over PacNW region for the next 30.0 days since TLE Epoch: 12/18/2021
Index Date (AQUA) Time (AQUA) AQUA Lat,Lon Date (NPP) Time (NPP) NPP Lat,Lon Distance(km) Time Diff (sec)
1 12/21/2021 15:59:59 22.61, 147.46 12/21/2021 16:02:53 23.31, 144.44 318.27 174
2 12/29/2021 15:10:40 22.59, 159.80 12/29/2021 15:12:01 23.19, 157.13 282.06 81
3 01/01/2022 03:32:31 22.68, 147.46 01/01/2022 03:29:02 25.58, 144.93 412.62 209
4 01/06/2022 16:00:11 22.58, 147.44 01/06/2022 16:02:34 23.27, 144.49 311.52 143
